{"data":{"norad_id":48785,"intl_designator":"2021-045U","name":"ONEWEB-0240","alt_names":[],"object_type":"PAYLOAD","status":"ACTIVE","operator":null,"country":"UK","launch_date":"2021-05-28","launch_site_code":"VOSTO","launch_vehicle":null,"mission":null,"orbit_class":"UNKNOWN","rcs_meters":null,"size_class":null,"mass_kg":null,"dimensions":null,"purposes":["comms"],"wikipedia_slug":null,"has_3d_model":false,"image_url":null,"decayed_at":null,"tle_current":{"epoch":"2026-09-19T17:19:59.606688Z","epoch_age_seconds":85553,"freshness":"FRESH","line1":"1 48785U 21045U   26262.72221767  .00000042  00000+0  76892-4 0  9997","line2":"2 48785  87.8999 240.3418 0001803  74.8515 285.2815 13.15549714256833","mean_motion":13.15549714,"eccentricity":0.0001803,"inclination_deg":87.8999,"raan_deg":240.3418,"arg_perigee_deg":74.8515,"mean_anomaly_deg":285.2815,"bstar":7.6892e-5,"rev_number":25683,"period_min":109.4599455023,"perigee_km":1200.3996397554,"apogee_km":1203.1329528841,"semimajor_km":7579.9032963197,"source":"CELESTRAK","updated_at":"2026-09-20T09:00:44.618819Z"}}}